This demonstration page uses our WeatherBlox Daily Observations layout. Learn more.

Left ArrowRight Arrow

Hourly Observations for March 6, 2017

Temp ( °F °C ) Dew Point ( °F °C ) Humidity (%) Winds ( mph kmh ) Pressure ( in mb ) Visibility ( mi km ) Precip ( " mm )
12:39 am 00:39 Mostly Cloudy 52 11.1 45 7.2 77 77 SSE 17 28 29.97 1015 10 16 0.00 0.00
12:52 am 00:52 Cloudy 53 11.7 46 7.8 77 77 SSE 18 30 29.96 1014 10 16 0.00 0.00
1:52 am 01:52 Cloudy 54 12.2 47 8.3 77 77 SSE 20 31 29.93 1014 10 16 0.00 0.00
1:59 am 01:59 Cloudy 54 12.2 47 8.3 77 77 SSE 20 31 29.94 1014 10 16 0.00 0.00
2:07 am 02:07 Cloudy 54 12.2 48 8.9 80 80 SSE 21 33 29.94 1014 10 16 0.00 0.00
2:52 am 02:52 Cloudy 55 12.8 49 9.4 80 80 SSE 18 30 29.91 1013 10 16 0.00 0.00
3:23 am 03:23 Cloudy 55 12.8 50 10 83 83 SSE 21 33 29.91 1013 10 16 0.00 0.00
3:52 am 03:52 Cloudy 56 13.3 50 10 81 81 SSE 17 28 29.88 1012 10 16 0.00 0.00
4:52 am 04:52 Cloudy 56 13.3 52 11.1 87 87 SSE 16 26 29.88 1012 10 16 0.00 0.00
5:43 am 05:43 Cloudy with Mist and Fog 55 12.8 53 11.7 93 93 SSE 17 28 29.88 1012 6 10 0.00 0.00
5:52 am 05:52 Cloudy with Mist and Fog 55 12.8 53 11.7 93 93 SSE 16 26 29.87 1011 6 10 0.00 0.00
6:52 am 06:52 Cloudy 56 13.3 54 12.2 93 93 S 15 24 29.86 1011 10 16 0.00 0.00
7:52 am 07:52 Cloudy 59 15 55 12.8 87 87 S 16 26 29.86 1011 10 16 0.00 0.00
8:07 am 08:07 Cloudy 59 15 55 12.8 87 87 SSE 16 26 29.83 1010 10 16 0.00 0.00
8:52 am 08:52 Mostly Cloudy 62 16.7 56 13.3 80 80 S 17 28 29.83 1010 10 16 0.00 0.00
9:05 am 09:05 Mostly Cloudy 62 16.7 56 13.3 80 80 S 15 24 29.83 1010 10 16 0.00 0.00
9:52 am 09:52 Cloudy 65 18.3 57 13.9 76 76 S 22 35 29.82 1010 10 16 0.00 0.00
10:14 am 10:14 Mostly Cloudy 66 19 57 14 73 73 S 23 37 29.80 1009 10 16 0.00 0.00
10:52 am 10:52 Cloudy 68 20 57 13.9 68 68 S 23 37 29.82 1010 10 16 0.00 0.00
11:52 am 11:52 Cloudy 72 22.2 56 13.3 57 57 S 30 48 29.79 1009 10 16 0.00 0.00
12:52 pm 12:52 Mostly Cloudy 73 22.8 55 12.8 53 53 SSW 31 50 29.75 1007 10 16 0.00 0.00
1:52 pm 13:52 Partly Cloudy 74 23.3 56 13.3 54 54 S 25 41 29.70 1006 10 16 0.00 0.00
2:52 pm 14:52 Cloudy 74 23.3 56 13.3 54 54 S 21 33 29.67 1005 10 16 0.00 0.00
3:52 pm 15:52 Cloudy 73 22.8 56 13.3 55 55 S 28 44 29.67 1005 10 16 0.00 0.00
4:52 pm 16:52 Mostly Cloudy 73 22.8 57 13.9 57 57 S 28 44 29.65 1004 10 16 0.00 0.00
5:52 pm 17:52 Cloudy 72 22.2 57 13.9 59 59 S 22 35 29.66 1005 10 16 0.00 0.00
6:52 pm 18:52 Mostly Clear 70 21.1 58 14.4 66 66 S 25 41 29.65 1004 10 16 0.00 0.00
7:52 pm 19:52 Mostly Cloudy 70 21.1 58 14.4 66 66 S 21 33 29.67 1005 10 16 0.00 0.00
8:52 pm 20:52 Clear 69 20.6 59 15 70 70 S 24 39 29.64 1004 10 16 0.00 0.00
9:52 pm 21:52 Clear 69 20.6 59 15 70 70 S 31 50 29.59 1002 10 16 0.00 0.00
10:46 pm 22:46 Partly Cloudy 57 14 46 8 67 67 NW 41 67 29.71 1006 10 16 0.00 0.00
10:52 pm 22:52 Mostly Cloudy with Light Rain 50 10 43 6.1 77 77 NNW 36 57 29.77 1008 9 14 0.00 0.03
10:55 pm 22:55 Mostly Cloudy with Nearby Thunderstorms 49 9.4 43 6.1 80 80 NW 35 56 29.80 1009 8 13 0.00 0.03
11:01 pm 23:01 Mostly Cloudy with Thunderstorms 47 8.3 43 6.1 86 86 NNW 35 56 29.80 1009 4 6 0.00 0.03
11:03 pm 23:03 Mostly Cloudy with Strong Thunderstorms 46 8 43 6 87 87 NNW 31 50 29.85 1011 3 4 0.00 0.00
11:13 pm 23:13 Cloudy with Strong Thunderstorms 44 6.7 42 5.6 93 93 NNW 20 31 29.85 1011 2 3 0.22 5.59
11:18 pm 23:18 Cloudy with Strong Thunderstorms 44 6.7 42 5.6 93 93 NNW 18 30 29.85 1011 3 4 0.27 6.86
11:43 pm 23:43 Cloudy with Thunderstorms 45 7.2 42 5.6 90 90 NNW 16 26 29.88 1012 5 8 0.48 12.19
11:52 pm 23:52 Cloudy with Thunderstorms 45 7.2 41 5 86 86 NW 12 19 29.86 1011 5 8 0.51 12.95

Powered by AerisWeather